Location: Oklahoma City
(35.4680°N, 97.5160°W)
Time: 06:21:37
(UTC-06:00)

ISS - Visible Passes

Search period start: 26 February 2017 00:00
Search period end: 08 March 2017 00:00
Orbit: 399 x 408 km, 51.6° (Epoch: 26 February)

Date Brightness Start Highest point End Pass type
(mag) Time Alt. Az. Time Alt. Az. Time Alt. Az.
28 Feb -0.7 05:54:00 10° S 05:56:29 20° SE 05:58:58 10° E visible
02 Mar -2.7 05:45:26 18° SSW 05:47:39 55° SE 05:50:53 10° ENE visible
03 Mar -1.1 04:55:39 24° ESE 04:55:39 24° ESE 04:57:57 10° ENE visible
03 Mar -2.1 06:28:43 10° W 06:31:35 27° NW 06:34:28 10° NNE visible
04 Mar -3.1 05:38:20 44° WNW 05:38:54 51° NW 05:42:08 10° NE visible
05 Mar -1.0 04:48:10 23° NE 04:48:10 23° NE 04:49:35 10° NE visible
05 Mar -1.2 06:21:11 10° WNW 06:23:05 14° NNW 06:25:00 10° N visible
06 Mar -1.7 05:30:32 23° NNW 05:30:32 23° NNW 05:32:58 10° NNE visible
07 Mar -0.3 04:40:08 14° NNE 04:40:08 14° NNE 04:40:40 10° NE visible
